星链-5749 (STARLINK-5749 )

导读

STARLINK-5749是美国SpaceX公司西雅图分部制造运营的星链系列商业通信卫星,于北京时间2023年2月12日由猎鹰9号火箭从美国空军东部试验场发射升空。卫星重约305公斤,运行在近地轨道,轨道倾角约43度,轨道周期约96分钟,旨在为全球提供高速低延迟卫星互联网接入服务,助力缩小数字鸿沟,同时可支持特殊领域通信需求。

基本信息
目录编号:
55569
目录名称:
STARLINK-5749
国际标识:
2023-020A
轨道中心:
EARTH
卫星名称:
星链-5749
卫星全名:
星链-5749 (STARLINK-5749 )
卫星状态:
在轨 (已飞行1300 天)
发射日期:
2023-02-12 UTC
国别 :
美国 (US)
星等 :
--
轨道信息
数据来源 国际轨道数据
星历时间: 2026-09-04T05:25:50+0800
19小时前
查看轨道信息
半长轴: 6861.193km
偏心率: 0.0001768
轨道倾角: 43.001°
近地点辐角 249.603°
升交点赤经 82.466°
平近点角 110.463°
近地点: 481.842km
远地点: 484.27km
周期: 94.267分钟
每日圈数: 15.275778
详细信息
固有亮度:
5
最大亮度:
2.5
卫星平台:
Starlink v1.5
覆盖范围:
全球
运营商:
太空探索技术公司
运营商所在国:
美国
制造商(研发单位):
太空探索技术公司
制造商所在国:
美国
使用方式:
暂无
卫星简介
星链(Starlink)计划是由太空探索技术公司(SpaceX)提出的一个巨型低轨卫星互联网星座项目,计划在2019年至2024年间在太空搭建由约1.2万颗卫星组成的“星链”网络,其中1584颗将部署在地球上空550千米处的近地轨道,并从2020年开始工作。该卫星仍在工作。
2D轨道图
3D轨道图
轨道高度分析图
轨道倾角分析图
轨道综合分析图
查看轨道综合分析图